Time,TemperatureF,DewpointF,PressureIn,WindDirection,WindDirectionDegrees,WindSpeedMPH,WindSpeedGustMPH,Humidity,HourlyPrecipIn,Conditions,Clouds,dailyrainin,SoftwareType,DateUTC
2013-05-26 00:00:00,39.1,37.5,29.73,WNW,284,0.0,3.0,94,0.00,RA,,0.00,WeatherDisplay:10.37,2013-05-26 04:00:00,
2013-05-26 00:05:00,39.0,37.4,29.73,SSW,200,1.0,5.0,94,0.00,RA,,0.00,WeatherDisplay:10.37,2013-05-26 04:05:00,
2013-05-26 00:10:00,38.9,37.3,29.73,WSW,244,0.0,4.0,94,0.00,OVC,,0.00,WeatherDisplay:10.37,2013-05-26 04:10:00,
2013-05-26 00:15:00,38.9,37.3,29.72,West,264,1.0,4.0,94,0.00,OVC,,0.00,WeatherDisplay:10.37,2013-05-26 04:15:00,
2013-05-26 00:20:00,38.8,37.2,29.72,WSW,251,1.0,2.0,94,0.00,-RA,,0.00,WeatherDisplay:10.37,2013-05-26 04:20:00,
2013-05-26 00:25:00,38.8,37.2,29.72,West,268,1.0,4.0,94,0.00,-RA,,0.00,WeatherDisplay:10.37,2013-05-26 04:25:00,
2013-05-26 00:30:00,38.8,37.5,29.72,WNW,295,1.0,2.0,95,0.00,-RA,,0.00,WeatherDisplay:10.37,2013-05-26 04:30:00,
2013-05-26 00:35:00,38.7,37.4,29.72,WNW,293,1.0,3.0,95,0.00,-RA,,0.00,WeatherDisplay:10.37,2013-05-26 04:35:00,
2013-05-26 00:40:00,38.8,37.5,29.72,WNW,288,0.0,4.0,95,0.00,-RA,,0.00,WeatherDisplay:10.37,2013-05-26 04:40:00,
2013-05-26 00:45:00,38.8,37.4,29.72,NNW,333,1.0,2.0,95,0.00,-RA,,0.00,WeatherDisplay:10.37,2013-05-26 04:45:00,
2013-05-26 00:50:00,38.8,37.5,29.72,WSW,254,0.0,4.0,95,0.00,-RA,,0.00,WeatherDisplay:10.37,2013-05-26 04:50:00,
2013-05-26 00:55:00,38.8,37.5,29.72,SW,225,1.0,3.0,95,0.00,-RA,,0.00,WeatherDisplay:10.37,2013-05-26 04:55:00,
2013-05-26 01:00:00,38.8,37.5,29.72,SW,231,1.0,4.0,95,0.00,-RA,,0.00,WeatherDisplay:10.37,2013-05-26 05:00:00,
2013-05-26 01:05:00,38.7,37.4,29.71,WNW,288,0.0,7.0,95,0.01,-RA,,0.01,WeatherDisplay:10.37,2013-05-26 05:05:00,
2013-05-26 01:10:00,38.7,37.4,29.71,West,267,0.0,3.0,95,0.00,-RA,,0.01,WeatherDisplay:10.37,2013-05-26 05:10:00,
2013-05-26 01:15:00,38.7,37.4,29.71,WSW,253,0.0,2.0,95,0.00,-RA,,0.01,WeatherDisplay:10.37,2013-05-26 05:15:00,
2013-05-26 01:20:00,38.7,37.4,29.71,West,278,0.0,2.0,95,0.00,-RA,,0.01,WeatherDisplay:10.37,2013-05-26 05:20:00,
2013-05-26 01:25:00,38.8,37.5,29.71,West,274,0.0,2.0,95,0.00,-RA,,0.01,WeatherDisplay:10.37,2013-05-26 05:25:00,
2013-05-26 01:30:00,38.8,37.5,29.71,WSW,244,0.0,3.0,95,0.00,-RA,,0.01,WeatherDisplay:10.37,2013-05-26 05:30:00,
2013-05-26 01:35:00,38.7,37.4,29.71,WSW,243,1.0,3.0,95,0.00,-RA,,0.01,WeatherDisplay:10.37,2013-05-26 05:35:00,
2013-05-26 01:40:00,38.7,37.4,29.71,West,262,0.0,2.0,95,0.00,-RA,,0.01,WeatherDisplay:10.37,2013-05-26 05:40:00,
2013-05-26 01:45:00,38.6,37.3,29.70,West,274,0.0,5.0,95,0.00,-RA,,0.01,WeatherDisplay:10.37,2013-05-26 05:45:00,
2013-05-26 01:50:00,38.6,37.3,29.71,WNW,286,0.0,2.0,95,0.00,-RA,,0.01,WeatherDisplay:10.37,2013-05-26 05:50:00,
2013-05-26 01:55:00,38.6,37.3,29.70,NW,318,0.0,2.0,95,0.00,-RA,,0.01,WeatherDisplay:10.37,2013-05-26 05:55:00,
2013-05-26 02:00:00,38.6,37.6,29.70,West,266,0.0,2.0,96,0.00,-RA,,0.01,WeatherDisplay:10.37,2013-05-26 06:00:00,
2013-05-26 02:05:00,38.7,37.7,29.70,WSW,240,0.0,3.0,96,0.00,OVC,,0.01,WeatherDisplay:10.37,2013-05-26 06:05:00,
2013-05-26 02:15:00,38.6,37.6,29.70,West,269,1.0,3.0,96,0.00,RA,,0.02,WeatherDisplay:10.37,2013-05-26 06:15:00,
2013-05-26 02:20:00,38.6,37.6,29.70,West,272,1.0,8.0,96,0.00,OVC,,0.02,WeatherDisplay:10.37,2013-05-26 06:20:00,
2013-05-26 02:25:00,38.6,37.6,29.70,WNW,293,0.0,3.0,96,0.00,OVC,,0.02,WeatherDisplay:10.37,2013-05-26 06:25:00,
2013-05-26 02:30:00,38.6,37.6,29.70,NNW,334,1.0,2.0,96,0.00,OVC,,0.02,WeatherDisplay:10.37,2013-05-26 06:30:00,
2013-05-26 02:35:00,38.7,37.6,29.70,NW,323,0.0,1.0,96,0.00,OVC,,0.02,WeatherDisplay:10.37,2013-05-26 06:35:00,
2013-05-26 02:40:00,38.7,37.7,29.69,West,279,0.0,2.0,96,0.00,OVC,,0.02,WeatherDisplay:10.37,2013-05-26 06:40:00,
2013-05-26 02:45:00,38.6,37.6,29.70,WSW,250,1.0,3.0,96,0.00,OVC,,0.02,WeatherDisplay:10.37,2013-05-26 06:45:00,
2013-05-26 02:50:00,38.6,37.6,29.69,WSW,249,0.0,5.0,96,0.00,OVC,,0.02,WeatherDisplay:10.37,2013-05-26 06:50:00,
2013-05-26 02:55:00,38.7,37.7,29.69,WSW,258,1.0,3.0,96,0.00,OVC,,0.02,WeatherDisplay:10.37,2013-05-26 06:55:00,
2013-05-26 03:00:00,38.7,37.7,29.69,WSW,256,1.0,5.0,96,0.00,OVC,,0.02,WeatherDisplay:10.37,2013-05-26 07:00:00,
2013-05-26 03:05:00,38.7,37.4,29.70,West,264,0.0,2.0,95,0.00,-RA,,0.02,WeatherDisplay:10.37,2013-05-26 07:05:00,
2013-05-26 03:10:00,38.7,37.7,29.69,West,274,0.0,2.0,96,0.01,-RA,,0.03,WeatherDisplay:10.37,2013-05-26 07:10:00,
2013-05-26 03:15:00,38.7,37.7,29.69,SSE,163,0.0,2.0,96,0.00,-RA,,0.03,WeatherDisplay:10.37,2013-05-26 07:15:00,
2013-05-26 03:20:00,38.8,37.8,29.69,South,187,0.0,3.0,96,0.00,-RA,,0.03,WeatherDisplay:10.37,2013-05-26 07:20:00,
2013-05-26 03:25:00,38.8,37.8,29.69,WSW,243,0.0,3.0,96,0.00,-RA,,0.03,WeatherDisplay:10.37,2013-05-26 07:25:00,
2013-05-26 03:30:00,38.8,37.8,29.69,West,267,2.0,4.0,96,0.00,-RA,,0.03,WeatherDisplay:10.37,2013-05-26 07:30:00,
2013-05-26 03:35:00,38.9,37.8,29.70,West,281,0.0,3.0,96,0.00,-RA,,0.03,WeatherDisplay:10.37,2013-05-26 07:35:00,
2013-05-26 03:40:00,38.9,37.9,29.69,West,276,2.0,4.0,96,0.01,-RA,,0.04,WeatherDisplay:10.37,2013-05-26 07:40:00,
2013-05-26 03:45:00,38.8,37.8,29.69,West,277,1.0,3.0,96,0.00,-RA,,0.04,WeatherDisplay:10.37,2013-05-26 07:45:00,
2013-05-26 03:50:00,38.9,37.9,29.69,WSW,253,1.0,4.0,96,0.00,-RA,,0.04,WeatherDisplay:10.37,2013-05-26 07:50:00,
2013-05-26 03:55:00,38.9,37.9,29.69,West,262,0.0,3.0,96,0.00,-RA,,0.04,WeatherDisplay:10.37,2013-05-26 07:55:00,
2013-05-26 04:00:00,38.9,37.9,29.70,WNW,301,1.0,4.0,96,0.01,-RA,,0.05,WeatherDisplay:10.37,2013-05-26 08:00:00,
2013-05-26 04:05:00,38.9,37.9,29.70,West,274,0.0,4.0,96,0.00,-RA,,0.05,WeatherDisplay:10.37,2013-05-26 08:05:00,
2013-05-26 04:10:00,38.9,37.9,29.70,WSW,252,1.0,5.0,96,0.00,-RA,,0.05,WeatherDisplay:10.37,2013-05-26 08:10:00,
2013-05-26 04:15:00,38.8,37.8,29.70,West,263,0.0,5.0,96,0.00,-RA,,0.05,WeatherDisplay:10.37,2013-05-26 08:15:00,
2013-05-26 04:20:00,38.9,37.8,29.70,West,267,1.0,3.0,96,0.01,-RA,,0.06,WeatherDisplay:10.37,2013-05-26 08:20:00,
2013-05-26 04:25:00,38.9,37.9,29.70,WSW,257,1.0,6.0,96,0.00,-RA,,0.06,WeatherDisplay:10.37,2013-05-26 08:25:00,
2013-05-26 04:30:00,38.9,37.8,29.70,West,276,1.0,5.0,96,0.00,-RA,,0.06,WeatherDisplay:10.37,2013-05-26 08:30:00,
2013-05-26 04:35:00,38.9,37.9,29.70,West,272,0.0,3.0,96,0.00,-RA,,0.06,WeatherDisplay:10.37,2013-05-26 08:35:00,
2013-05-26 04:40:00,38.9,37.9,29.70,West,268,0.0,3.0,96,0.00,-RA,,0.06,WeatherDisplay:10.37,2013-05-26 08:40:00,
2013-05-26 04:45:00,38.9,37.9,29.70,West,265,0.0,3.0,96,0.00,-RA,,0.06,WeatherDisplay:10.37,2013-05-26 08:45:00,
2013-05-26 04:50:00,38.9,37.9,29.70,West,269,0.0,4.0,96,0.00,-RA,,0.06,WeatherDisplay:10.37,2013-05-26 08:50:00,
2013-05-26 04:55:00,39.0,37.9,29.71,West,281,0.0,2.0,96,0.00,-RA,,0.06,WeatherDisplay:10.37,2013-05-26 08:55:00,
2013-05-26 05:00:00,39.0,38.0,29.71,WNW,287,0.0,3.0,96,0.00,-RA,,0.06,WeatherDisplay:10.37,2013-05-26 09:00:00,
2013-05-26 05:05:00,39.1,38.1,29.71,West,277,0.0,4.0,96,0.00,OVC,,0.06,WeatherDisplay:10.37,2013-05-26 09:05:00,
2013-05-26 05:10:00,39.1,38.1,29.71,WNW,286,1.0,6.0,96,0.00,OVC,,0.06,WeatherDisplay:10.37,2013-05-26 09:10:00,
2013-05-26 05:15:00,39.1,38.1,29.71,WNW,284,0.0,4.0,96,0.00,OVC,,0.06,WeatherDisplay:10.37,2013-05-26 09:15:00,
2013-05-26 05:20:00,39.1,38.1,29.71,WNW,289,0.0,3.0,96,0.00,OVC,,0.06,WeatherDisplay:10.37,2013-05-26 09:20:00,
2013-05-26 05:25:00,39.1,38.1,29.71,WNW,287,2.0,4.0,96,0.01,RA,,0.07,WeatherDisplay:10.37,2013-05-26 09:25:00,
2013-05-26 05:30:00,39.1,37.8,29.72,West,279,2.0,5.0,95,0.00,RA,,0.07,WeatherDisplay:10.37,2013-05-26 09:30:00,
2013-05-26 05:35:00,39.2,37.9,29.72,NW,309,1.0,4.0,95,0.00,OVC,,0.07,WeatherDisplay:10.37,2013-05-26 09:35:00,
2013-05-26 05:40:00,39.3,38.3,29.72,NW,312,0.0,5.0,96,0.00,OVC,,0.07,WeatherDisplay:10.37,2013-05-26 09:40:00,
2013-05-26 05:45:00,39.3,38.3,29.72,West,281,1.0,6.0,96,0.00,OVC,,0.07,WeatherDisplay:10.37,2013-05-26 09:45:00,
2013-05-26 05:50:00,39.3,38.0,29.72,WNW,284,1.0,4.0,95,0.00,OVC,,0.07,WeatherDisplay:10.37,2013-05-26 09:50:00,
2013-05-26 05:55:00,39.4,38.4,29.73,WNW,300,1.0,6.0,96,0.00,OVC,,0.07,WeatherDisplay:10.37,2013-05-26 09:55:00,
2013-05-26 06:00:00,39.5,38.5,29.73,NW,305,0.0,4.0,96,0.00,OVC,,0.07,WeatherDisplay:10.37,2013-05-26 10:00:00,
2013-05-26 06:05:00,39.5,38.5,29.73,WNW,299,1.0,8.0,96,0.00,-RA,,0.07,WeatherDisplay:10.37,2013-05-26 10:05:00,
2013-05-26 06:10:00,39.6,38.6,29.73,WNW,291,1.0,6.0,96,0.00,-RA,,0.07,WeatherDisplay:10.37,2013-05-26 10:10:00,
2013-05-26 06:15:00,39.6,38.6,29.74,West,263,1.0,4.0,96,0.00,-RA,,0.07,WeatherDisplay:10.37,2013-05-26 10:15:00,
2013-05-26 06:20:00,39.6,38.6,29.74,West,265,2.0,5.0,96,0.01,-RA,,0.08,WeatherDisplay:10.37,2013-05-26 10:20:00,
2013-05-26 06:25:00,39.6,38.6,29.74,WSW,258,0.0,5.0,96,0.00,-RA,,0.08,WeatherDisplay:10.37,2013-05-26 10:25:00,
2013-05-26 06:30:00,39.7,38.7,29.74,WSW,256,0.0,3.0,96,0.00,-RA,,0.08,WeatherDisplay:10.37,2013-05-26 10:30:00,
2013-05-26 06:35:00,39.7,38.7,29.74,West,261,0.0,1.0,96,0.00,-RA,,0.08,WeatherDisplay:10.37,2013-05-26 10:35:00,
2013-05-26 06:40:00,39.8,38.7,29.74,West,268,0.0,4.0,96,0.00,-RA,,0.08,WeatherDisplay:10.37,2013-05-26 10:40:00,
2013-05-26 06:45:00,39.8,38.8,29.74,WSW,257,0.0,3.0,96,0.00,-RA,,0.08,WeatherDisplay:10.37,2013-05-26 10:45:00,
2013-05-26 06:50:00,39.8,38.8,29.74,SW,216,0.0,2.0,96,0.00,-RA,,0.08,WeatherDisplay:10.37,2013-05-26 10:50:00,
2013-05-26 06:55:00,39.8,38.5,29.75,WNW,282,3.0,8.0,95,0.00,-RA,,0.08,WeatherDisplay:10.37,2013-05-26 10:55:00,
2013-05-26 07:00:00,39.8,38.5,29.75,West,268,1.0,4.0,95,0.00,-RA,,0.08,WeatherDisplay:10.37,2013-05-26 11:00:00,
2013-05-26 07:05:00,39.8,38.5,29.75,West,260,1.0,3.0,95,0.00,-RA,,0.08,WeatherDisplay:10.37,2013-05-26 11:05:00,
2013-05-26 07:10:00,40.0,38.9,29.75,WSW,247,0.0,2.0,96,0.00,-RA,,0.08,WeatherDisplay:10.37,2013-05-26 11:10:00,
2013-05-26 07:15:00,40.1,39.0,29.75,WSW,247,1.0,2.0,96,0.00,-RA,,0.08,WeatherDisplay:10.37,2013-05-26 11:15:00,
2013-05-26 07:20:00,40.2,39.1,29.75,NW,319,0.0,4.0,96,0.00,-RA,,0.08,WeatherDisplay:10.37,2013-05-26 11:20:00,
2013-05-26 07:25:00,40.2,39.2,29.75,NNW,337,1.0,4.0,96,0.00,-RA,,0.08,WeatherDisplay:10.37,2013-05-26 11:25:00,
2013-05-26 07:30:00,40.4,39.4,29.75,WSW,255,1.0,5.0,96,0.01,-RA,,0.09,WeatherDisplay:10.37,2013-05-26 11:30:00,
2013-05-26 07:35:00,40.5,39.4,29.75,WNW,287,1.0,6.0,96,0.00,-RA,,0.09,WeatherDisplay:10.37,2013-05-26 11:35:00,
2013-05-26 07:45:00,40.8,39.7,29.75,NW,308,1.0,4.0,96,0.00,-RA,,0.09,WeatherDisplay:10.37,2013-05-26 11:45:00,
2013-05-26 07:50:00,40.9,39.8,29.76,WNW,283,2.0,5.0,96,0.00,-RA,,0.09,WeatherDisplay:10.37,2013-05-26 11:50:00,
2013-05-26 07:55:00,41.0,39.9,29.76,West,277,2.0,7.0,96,0.00,-RA,,0.09,WeatherDisplay:10.37,2013-05-26 11:55:00,
2013-05-26 08:00:00,41.1,40.0,29.76,West,268,2.0,5.0,96,0.00,-RA,,0.09,WeatherDisplay:10.37,2013-05-26 12:00:00,
2013-05-26 08:05:00,41.3,40.0,29.76,WSW,246,0.0,3.0,95,0.00,OVC,,0.09,WeatherDisplay:10.37,2013-05-26 12:05:00,
2013-05-26 08:10:00,41.4,40.1,29.77,West,278,1.0,4.0,95,0.00,OVC,,0.09,WeatherDisplay:10.37,2013-05-26 12:10:00,
2013-05-26 08:15:00,41.5,40.2,29.77,WNW,285,0.0,3.0,95,0.00,OVC,,0.09,WeatherDisplay:10.37,2013-05-26 12:15:00,
2013-05-26 08:20:00,41.6,40.3,29.77,WNW,287,0.0,2.0,95,0.00,OVC,,0.09,WeatherDisplay:10.37,2013-05-26 12:20:00,
2013-05-26 08:25:00,41.8,40.7,29.77,WNW,302,1.0,3.0,96,0.00,OVC,,0.09,WeatherDisplay:10.37,2013-05-26 12:25:00,
2013-05-26 08:30:00,42.0,40.7,29.77,NW,304,1.0,3.0,95,0.00,OVC,,0.09,WeatherDisplay:10.37,2013-05-26 12:30:00,
2013-05-26 08:35:00,42.3,41.0,29.78,NW,308,0.0,3.0,95,0.00,OVC,,0.09,WeatherDisplay:10.37,2013-05-26 12:35:00,
2013-05-26 08:40:00,42.5,41.2,29.78,SSW,200,0.0,1.0,95,0.00,OVC,,0.09,WeatherDisplay:10.37,2013-05-26 12:40:00,
2013-05-26 08:45:00,42.8,41.5,29.78,WSW,247,1.0,3.0,95,0.00,OVC,,0.09,WeatherDisplay:10.37,2013-05-26 12:45:00,
2013-05-26 08:50:00,43.1,41.5,29.78,West,281,2.0,4.0,94,0.00,OVC,,0.09,WeatherDisplay:10.37,2013-05-26 12:50:00,
2013-05-26 08:55:00,43.3,41.7,29.78,WNW,284,2.0,5.0,94,0.00,OVC,,0.09,WeatherDisplay:10.37,2013-05-26 12:55:00,
2013-05-26 09:00:00,43.5,41.6,29.78,WNW,285,1.0,3.0,93,0.00,OVC,,0.09,WeatherDisplay:10.37,2013-05-26 13:00:00,
2013-05-26 09:05:00,43.9,42.3,29.78,WSW,238,0.0,2.0,94,0.00,OVC,,0.09,WeatherDisplay:10.37,2013-05-26 13:05:00,
2013-05-26 09:10:00,44.3,42.6,29.78,ENE,58,0.0,2.0,94,0.00,OVC,,0.09,WeatherDisplay:10.37,2013-05-26 13:10:00,
2013-05-26 09:15:00,44.7,43.1,29.79,NNW,346,0.0,2.0,94,0.00,OVC,,0.09,WeatherDisplay:10.37,2013-05-26 13:15:00,
2013-05-26 09:20:00,45.0,42.2,29.79,West,269,1.0,7.0,90,0.00,OVC,,0.09,WeatherDisplay:10.37,2013-05-26 13:20:00,
2013-05-26 09:25:00,45.2,43.0,29.78,WNW,285,1.0,4.0,92,0.00,OVC,,0.09,WeatherDisplay:10.37,2013-05-26 13:25:00,
2013-05-26 09:30:00,45.6,42.8,29.78,West,261,1.0,5.0,90,0.00,OVC,,0.09,WeatherDisplay:10.37,2013-05-26 13:30:00,
2013-05-26 09:35:00,45.9,43.1,29.78,West,276,2.0,9.0,90,0.00,OVC,,0.09,WeatherDisplay:10.37,2013-05-26 13:35:00,
2013-05-26 09:40:00,46.7,43.6,29.78,WNW,287,3.0,8.0,89,0.00,OVC,,0.09,WeatherDisplay:10.37,2013-05-26 13:40:00,
2013-05-26 09:45:00,47.2,42.6,29.78,West,281,5.0,9.0,84,0.00,OVC,,0.09,WeatherDisplay:10.37,2013-05-26 13:45:00,
2013-05-26 09:50:00,47.4,42.5,29.79,West,281,3.0,8.0,83,0.00,OVC,,0.09,WeatherDisplay:10.37,2013-05-26 13:50:00,
2013-05-26 09:55:00,47.7,43.1,29.79,WNW,286,2.0,5.0,84,0.00,OVC,,0.09,WeatherDisplay:10.37,2013-05-26 13:55:00,
2013-05-26 10:00:00,48.5,43.0,29.79,WNW,295,2.0,8.0,81,0.00,OVC,,0.09,WeatherDisplay:10.37,2013-05-26 14:00:00,
2013-05-26 10:05:00,49.1,43.2,29.79,NNW,341,1.0,12.0,80,0.00,OVC,,0.09,WeatherDisplay:10.37,2013-05-26 14:05:00,
2013-05-26 10:10:00,49.5,43.6,29.79,NNW,328,1.0,7.0,80,0.00,OVC,,0.09,WeatherDisplay:10.37,2013-05-26 14:10:00,
2013-05-26 10:15:00,49.7,43.5,29.79,NW,306,2.0,4.0,79,0.00,OVC,,0.09,WeatherDisplay:10.37,2013-05-26 14:15:00,
2013-05-26 10:20:00,49.8,43.5,29.79,WNW,298,1.0,6.0,79,0.00,OVC,,0.09,WeatherDisplay:10.37,2013-05-26 14:20:00,
2013-05-26 10:25:00,50.1,43.8,29.80,NW,306,2.0,8.0,79,0.00,OVC,,0.09,WeatherDisplay:10.37,2013-05-26 14:25:00,
2013-05-26 10:30:00,50.2,43.9,29.80,NW,325,2.0,8.0,79,0.00,OVC,,0.09,WeatherDisplay:10.37,2013-05-26 14:30:00,
2013-05-26 10:35:00,50.1,43.2,29.80,WNW,289,3.0,12.0,77,0.00,OVC,,0.09,WeatherDisplay:10.37,2013-05-26 14:35:00,
2013-05-26 10:40:00,50.1,42.5,29.80,WNW,296,2.0,8.0,75,0.00,OVC,,0.09,WeatherDisplay:10.37,2013-05-26 14:40:00,
2013-05-26 10:45:00,50.8,44.2,29.80,NW,310,3.0,6.0,78,0.00,OVC,,0.09,WeatherDisplay:10.37,2013-05-26 14:45:00,
2013-05-26 10:50:00,51.2,42.4,29.80,WNW,292,3.0,7.0,72,0.00,OVC,,0.09,WeatherDisplay:10.37,2013-05-26 14:50:00,
2013-05-26 10:55:00,51.2,42.5,29.80,WSW,255,2.0,4.0,72,0.00,OVC,,0.09,WeatherDisplay:10.37,2013-05-26 14:55:00,
2013-05-26 11:00:00,51.2,42.5,29.80,SW,234,2.0,2.0,72,0.00,OVC,,0.09,WeatherDisplay:10.37,2013-05-26 15:00:00,
2013-05-26 11:05:00,51.9,42.8,29.80,West,271,0.0,6.0,71,0.00,SCT,,0.09,WeatherDisplay:10.37,2013-05-26 15:05:00,
2013-05-26 11:10:00,52.1,42.6,29.81,West,281,5.0,12.0,70,0.00,SCT,,0.09,WeatherDisplay:10.37,2013-05-26 15:10:00,
2013-05-26 11:15:00,52.0,43.3,29.81,WNW,302,3.0,12.0,72,0.00,SCT,,0.09,WeatherDisplay:10.37,2013-05-26 15:15:00,
2013-05-26 11:20:00,52.3,42.8,29.81,NNW,332,2.0,8.0,70,0.00,SCT,,0.09,WeatherDisplay:10.37,2013-05-26 15:20:00,
2013-05-26 11:25:00,52.5,44.0,29.82,WNW,298,2.0,7.0,73,0.00,SCT,,0.09,WeatherDisplay:10.37,2013-05-26 15:25:00,
2013-05-26 11:30:00,52.3,42.0,29.82,WNW,287,3.0,8.0,68,0.00,SCT,,0.09,WeatherDisplay:10.37,2013-05-26 15:30:00,
2013-05-26 11:35:00,51.9,42.1,29.82,NW,323,0.0,6.0,69,0.00,SCT,,0.09,WeatherDisplay:10.37,2013-05-26 15:35:00,
2013-05-26 11:40:00,52.1,42.2,29.81,NW,316,1.0,6.0,69,0.00,SCT,,0.09,WeatherDisplay:10.37,2013-05-26 15:40:00,
2013-05-26 11:45:00,52.3,42.8,29.81,NW,308,2.0,8.0,70,0.00,SCT,,0.09,WeatherDisplay:10.37,2013-05-26 15:45:00,
2013-05-26 11:50:00,52.7,43.5,29.81,NW,312,0.0,6.0,71,0.00,SCT,,0.09,WeatherDisplay:10.37,2013-05-26 15:50:00,
2013-05-26 11:55:00,53.3,43.0,29.82,WNW,303,3.0,13.0,68,0.00,SCT,,0.09,WeatherDisplay:10.37,2013-05-26 15:55:00,
2013-05-26 12:00:00,54.1,43.4,29.82,NW,324,2.0,5.0,67,0.00,SCT,,0.09,WeatherDisplay:10.37,2013-05-26 16:00:00,
2013-05-26 12:05:00,54.3,42.3,29.82,NW,317,2.0,8.0,64,0.00,BKN,,0.09,WeatherDisplay:10.37,2013-05-26 16:05:00,
2013-05-26 12:10:00,54.2,41.9,29.82,West,281,5.0,8.0,63,0.00,BKN,,0.09,WeatherDisplay:10.37,2013-05-26 16:10:00,
2013-05-26 12:15:00,54.6,43.9,29.82,WNW,286,1.0,7.0,67,0.00,BKN,,0.09,WeatherDisplay:10.37,2013-05-26 16:15:00,
2013-05-26 12:20:00,55.0,43.4,29.82,WNW,297,1.0,5.0,65,0.00,BKN,,0.09,WeatherDisplay:10.37,2013-05-26 16:20:00,
2013-05-26 12:25:00,55.0,42.6,29.83,WNW,292,2.0,5.0,63,0.00,BKN,,0.09,WeatherDisplay:10.37,2013-05-26 16:25:00,
2013-05-26 12:30:00,54.8,42.8,29.83,West,273,3.0,7.0,64,0.00,BKN,,0.09,WeatherDisplay:10.37,2013-05-26 16:30:00,
2013-05-26 12:35:00,54.4,42.1,29.83,West,271,3.0,12.0,63,0.00,BKN,,0.09,WeatherDisplay:10.37,2013-05-26 16:35:00,
2013-05-26 12:40:00,54.0,42.1,29.83,West,276,3.0,7.0,64,0.00,BKN,,0.09,WeatherDisplay:10.37,2013-05-26 16:40:00,
2013-05-26 12:45:00,53.7,41.4,29.83,WNW,287,1.0,8.0,63,0.00,BKN,,0.09,WeatherDisplay:10.37,2013-05-26 16:45:00,
2013-05-26 12:50:00,53.6,41.7,29.83,WNW,283,0.0,5.0,64,0.00,BKN,,0.09,WeatherDisplay:10.37,2013-05-26 16:50:00,
2013-05-26 12:55:00,53.7,44.1,29.83,WNW,293,1.0,6.0,70,0.00,BKN,,0.09,WeatherDisplay:10.37,2013-05-26 16:55:00,
2013-05-26 13:00:00,53.7,43.0,29.83,NW,322,1.0,7.0,67,0.00,BKN,,0.09,WeatherDisplay:10.37,2013-05-26 17:00:00,
2013-05-26 13:05:00,53.6,42.5,29.84,WNW,296,0.0,5.0,66,0.00,OVC,,0.09,WeatherDisplay:10.37,2013-05-26 17:05:00,
2013-05-26 13:10:00,53.5,43.6,29.84,West,267,2.0,6.0,69,0.00,OVC,,0.09,WeatherDisplay:10.37,2013-05-26 17:10:00,
2013-05-26 13:15:00,53.4,41.5,29.84,West,279,2.0,7.0,64,0.00,OVC,,0.09,WeatherDisplay:10.37,2013-05-26 17:15:00,
2013-05-26 13:20:00,53.6,41.7,29.84,West,275,3.0,8.0,64,0.00,OVC,,0.09,WeatherDisplay:10.37,2013-05-26 17:20:00,
2013-05-26 13:25:00,53.8,41.9,29.84,West,276,0.0,5.0,64,0.00,OVC,,0.09,WeatherDisplay:10.37,2013-05-26 17:25:00,
2013-05-26 13:30:00,54.0,42.5,29.85,WNW,288,2.0,8.0,65,0.00,OVC,,0.09,WeatherDisplay:10.37,2013-05-26 17:30:00,
2013-05-26 13:35:00,53.8,41.5,29.85,WNW,287,3.0,7.0,63,0.00,OVC,,0.09,WeatherDisplay:10.37,2013-05-26 17:35:00,
2013-05-26 13:40:00,53.5,42.0,29.85,WNW,298,2.0,5.0,65,0.00,OVC,,0.09,WeatherDisplay:10.37,2013-05-26 17:40:00,
2013-05-26 13:45:00,53.3,43.0,29.85,West,271,1.0,4.0,68,0.00,OVC,,0.09,WeatherDisplay:10.37,2013-05-26 17:45:00,
2013-05-26 13:50:00,53.1,42.8,29.85,WSW,247,2.0,6.0,68,0.00,OVC,,0.09,WeatherDisplay:10.37,2013-05-26 17:50:00,
2013-05-26 13:55:00,53.2,42.9,29.85,West,268,1.0,5.0,68,0.00,OVC,,0.09,WeatherDisplay:10.37,2013-05-26 17:55:00,
2013-05-26 14:00:00,53.5,42.8,29.85,West,276,1.0,4.0,67,0.00,OVC,,0.09,WeatherDisplay:10.37,2013-05-26 18:00:00,
2013-05-26 14:05:00,53.6,41.7,29.86,WNW,298,1.0,8.0,64,0.00,OVC,,0.09,WeatherDisplay:10.37,2013-05-26 18:05:00,
2013-05-26 14:10:00,53.7,41.8,29.86,NW,310,1.0,9.0,64,0.00,OVC,,0.09,WeatherDisplay:10.37,2013-05-26 18:10:00,
2013-05-26 14:15:00,53.8,42.7,29.86,NW,313,2.0,8.0,66,0.00,OVC,,0.09,WeatherDisplay:10.37,2013-05-26 18:15:00,
2013-05-26 14:20:00,53.9,42.4,29.86,WNW,295,2.0,7.0,65,0.00,OVC,,0.09,WeatherDisplay:10.37,2013-05-26 18:20:00,
2013-05-26 14:25:00,54.0,41.7,29.86,WNW,286,2.0,9.0,63,0.00,OVC,,0.09,WeatherDisplay:10.37,2013-05-26 18:25:00,
2013-05-26 14:30:00,54.1,42.2,29.86,West,268,2.0,6.0,64,0.00,OVC,,0.09,WeatherDisplay:10.37,2013-05-26 18:30:00,
2013-05-26 14:35:00,54.1,41.8,29.86,WNW,288,2.0,4.0,63,0.00,OVC,,0.09,WeatherDisplay:10.37,2013-05-26 18:35:00,
2013-05-26 14:40:00,54.0,41.3,29.86,West,264,2.0,8.0,62,0.00,OVC,,0.09,WeatherDisplay:10.37,2013-05-26 18:40:00,
2013-05-26 14:45:00,54.0,40.9,29.87,West,277,1.0,8.0,61,0.00,OVC,,0.09,WeatherDisplay:10.37,2013-05-26 18:45:00,
2013-05-26 14:50:00,54.4,41.2,29.87,WNW,283,1.0,6.0,61,0.00,OVC,,0.09,WeatherDisplay:10.37,2013-05-26 18:50:00,
2013-05-26 14:55:00,54.7,42.3,29.87,West,271,0.0,5.0,63,0.00,OVC,,0.09,WeatherDisplay:10.37,2013-05-26 18:55:00,
2013-05-26 15:00:00,54.8,42.4,29.87,WNW,293,3.0,8.0,63,0.00,OVC,,0.09,WeatherDisplay:10.37,2013-05-26 19:00:00,
2013-05-26 15:05:00,54.8,41.6,29.87,WNW,283,2.0,9.0,61,0.00,OVC,,0.09,WeatherDisplay:10.37,2013-05-26 19:05:00,
2013-05-26 15:10:00,54.6,40.6,29.88,WNW,289,2.0,8.0,59,0.00,OVC,,0.09,WeatherDisplay:10.37,2013-05-26 19:10:00,
2013-05-26 15:15:00,54.1,40.5,29.88,NW,304,2.0,6.0,60,0.00,OVC,,0.09,WeatherDisplay:10.37,2013-05-26 19:15:00,
2013-05-26 15:20:00,53.8,39.8,29.88,WNW,296,1.0,6.0,59,0.00,OVC,,0.09,WeatherDisplay:10.37,2013-05-26 19:20:00,
2013-05-26 15:25:00,53.9,42.0,29.89,WNW,284,5.0,9.0,64,0.00,OVC,,0.09,WeatherDisplay:10.37,2013-05-26 19:25:00,
2013-05-26 15:30:00,54.0,40.4,29.89,WNW,291,2.0,10.0,60,0.00,OVC,,0.09,WeatherDisplay:10.37,2013-05-26 19:30:00,
2013-05-26 15:35:00,53.9,41.2,29.90,WNW,292,1.0,6.0,62,0.00,OVC,,0.09,WeatherDisplay:10.37,2013-05-26 19:35:00,
2013-05-26 15:40:00,54.0,41.3,29.90,NW,311,1.0,6.0,62,0.00,OVC,,0.09,WeatherDisplay:10.37,2013-05-26 19:40:00,
2013-05-26 15:45:00,54.0,40.8,29.90,WNW,303,2.0,8.0,61,0.00,OVC,,0.09,WeatherDisplay:10.37,2013-05-26 19:45:00,
2013-05-26 15:50:00,53.9,40.3,29.90,WNW,303,1.0,6.0,60,0.00,OVC,,0.09,WeatherDisplay:10.37,2013-05-26 19:50:00,
2013-05-26 15:55:00,53.8,41.9,29.90,WNW,294,2.0,5.0,64,0.00,OVC,,0.09,WeatherDisplay:10.37,2013-05-26 19:55:00,
2013-05-26 16:00:00,53.9,41.6,29.90,West,279,1.0,5.0,63,0.00,OVC,,0.09,WeatherDisplay:10.37,2013-05-26 20:00:00,
2013-05-26 16:05:00,53.9,41.6,29.90,WNW,303,1.0,5.0,63,0.00,OVC,,0.09,WeatherDisplay:10.37,2013-05-26 20:05:00,
2013-05-26 16:10:00,53.8,40.7,29.91,NW,307,2.0,6.0,61,0.00,OVC,,0.09,WeatherDisplay:10.37,2013-05-26 20:10:00,
2013-05-26 16:15:00,53.7,41.0,29.91,WNW,284,2.0,6.0,62,0.00,OVC,,0.09,WeatherDisplay:10.37,2013-05-26 20:15:00,
2013-05-26 16:20:00,53.7,41.4,29.91,WNW,282,1.0,5.0,63,0.00,OVC,,0.09,WeatherDisplay:10.37,2013-05-26 20:20:00,
2013-05-26 16:25:00,53.7,41.0,29.91,WNW,298,3.0,7.0,62,0.00,OVC,,0.09,WeatherDisplay:10.37,2013-05-26 20:25:00,
2013-05-26 16:30:00,53.6,41.7,29.91,WNW,284,1.0,6.0,64,0.00,OVC,,0.09,WeatherDisplay:10.37,2013-05-26 20:30:00,
2013-05-26 16:35:00,53.7,40.5,29.91,NW,310,1.0,6.0,61,0.00,OVC,,0.09,WeatherDisplay:10.37,2013-05-26 20:35:00,
2013-05-26 16:40:00,53.8,40.2,29.91,NW,316,1.0,5.0,60,0.00,OVC,,0.09,WeatherDisplay:10.37,2013-05-26 20:40:00,
2013-05-26 16:45:00,53.9,40.8,29.91,WNW,299,2.0,5.0,61,0.00,OVC,,0.09,WeatherDisplay:10.37,2013-05-26 20:45:00,
2013-05-26 16:50:00,54.0,42.5,29.91,West,277,1.0,4.0,65,0.00,OVC,,0.09,WeatherDisplay:10.37,2013-05-26 20:50:00,
2013-05-26 16:55:00,54.1,41.4,29.92,West,273,2.0,7.0,62,0.00,OVC,,0.09,WeatherDisplay:10.37,2013-05-26 20:55:00,
2013-05-26 17:00:00,54.0,41.3,29.92,West,266,1.0,6.0,62,0.00,OVC,,0.09,WeatherDisplay:10.37,2013-05-26 21:00:00,
2013-05-26 17:05:00,54.0,43.3,29.92,WNW,288,1.0,2.0,67,0.00,BKN,,0.09,WeatherDisplay:10.37,2013-05-26 21:05:00,
2013-05-26 17:10:00,54.0,41.7,29.92,West,281,3.0,7.0,63,0.00,BKN,,0.09,WeatherDisplay:10.37,2013-05-26 21:10:00,
2013-05-26 17:20:00,53.9,42.0,29.93,WNW,292,0.0,5.0,64,0.00,BKN,,0.09,WeatherDisplay:10.37,2013-05-26 21:20:00,
2013-05-26 17:25:00,53.8,40.7,29.93,WNW,284,2.0,7.0,61,0.00,BKN,,0.09,WeatherDisplay:10.37,2013-05-26 21:25:00,
2013-05-26 17:30:00,53.8,40.7,29.93,WNW,285,1.0,5.0,61,0.00,BKN,,0.09,WeatherDisplay:10.37,2013-05-26 21:30:00,
2013-05-26 17:35:00,53.8,41.0,29.93,West,273,1.0,6.0,62,0.00,BKN,,0.09,WeatherDisplay:10.37,2013-05-26 21:35:00,
2013-05-26 17:40:00,53.7,40.5,29.94,West,273,0.0,6.0,61,0.00,BKN,,0.09,WeatherDisplay:10.37,2013-05-26 21:40:00,
2013-05-26 17:45:00,53.6,40.5,29.94,WNW,282,1.0,5.0,61,0.00,BKN,,0.09,WeatherDisplay:10.37,2013-05-26 21:45:00,
2013-05-26 17:50:00,53.7,40.1,29.94,WNW,283,3.0,7.0,60,0.00,BKN,,0.09,WeatherDisplay:10.37,2013-05-26 21:50:00,
2013-05-26 17:55:00,53.8,40.6,29.94,NW,305,1.0,6.0,61,0.00,BKN,,0.09,WeatherDisplay:10.37,2013-05-26 21:55:00,
2013-05-26 18:00:00,53.7,40.1,29.94,NW,306,1.0,6.0,60,0.00,BKN,,0.09,WeatherDisplay:10.37,2013-05-26 22:00:00,
2013-05-26 18:05:00,53.6,41.3,29.95,WNW,292,2.0,5.0,63,0.00,OVC,,0.09,WeatherDisplay:10.37,2013-05-26 22:05:00,
2013-05-26 18:10:00,53.5,42.0,29.95,West,265,1.0,4.0,65,0.00,OVC,,0.09,WeatherDisplay:10.37,2013-05-26 22:10:00,
2013-05-26 18:15:00,53.5,40.8,29.95,West,270,1.0,9.0,62,0.00,OVC,,0.09,WeatherDisplay:10.37,2013-05-26 22:15:00,
2013-05-26 18:20:00,53.5,40.8,29.95,West,281,1.0,7.0,62,0.00,OVC,,0.09,WeatherDisplay:10.37,2013-05-26 22:20:00,
2013-05-26 18:25:00,53.5,41.2,29.96,WNW,284,2.0,6.0,63,0.00,OVC,,0.09,WeatherDisplay:10.37,2013-05-26 22:25:00,
2013-05-26 18:30:00,53.4,40.7,29.96,West,270,1.0,6.0,62,0.00,OVC,,0.09,WeatherDisplay:10.37,2013-05-26 22:30:00,
2013-05-26 18:35:00,53.3,41.0,29.97,West,266,2.0,8.0,63,0.00,OVC,,0.09,WeatherDisplay:10.37,2013-05-26 22:35:00,
2013-05-26 18:40:00,53.2,40.1,29.97,WNW,290,1.0,7.0,61,0.00,OVC,,0.09,WeatherDisplay:10.37,2013-05-26 22:40:00,
2013-05-26 18:45:00,53.1,39.6,29.97,WNW,299,1.0,5.0,60,0.00,OVC,,0.09,WeatherDisplay:10.37,2013-05-26 22:45:00,
2013-05-26 18:50:00,53.0,41.1,29.97,WNW,284,5.0,7.0,64,0.00,OVC,,0.09,WeatherDisplay:10.37,2013-05-26 22:50:00,
2013-05-26 18:55:00,52.8,40.1,29.98,WNW,299,2.0,8.0,62,0.00,OVC,,0.09,WeatherDisplay:10.37,2013-05-26 22:55:00,
2013-05-26 19:00:00,52.8,40.9,29.98,West,271,1.0,7.0,64,0.00,OVC,,0.09,WeatherDisplay:10.37,2013-05-26 23:00:00,
2013-05-26 19:05:00,52.6,40.8,29.98,WSW,256,1.0,6.0,64,0.00,OVC,,0.09,WeatherDisplay:10.37,2013-05-26 23:05:00,
2013-05-26 19:10:00,52.6,41.2,29.98,West,268,0.0,6.0,65,0.00,OVC,,0.09,WeatherDisplay:10.37,2013-05-26 23:10:00,
2013-05-26 19:15:00,52.5,42.2,29.98,West,274,1.0,2.0,68,0.00,OVC,,0.09,WeatherDisplay:10.37,2013-05-26 23:15:00,
2013-05-26 19:20:00,52.3,42.4,29.99,West,280,2.0,5.0,69,0.00,OVC,,0.09,WeatherDisplay:10.37,2013-05-26 23:20:00,
2013-05-26 19:25:00,52.1,41.5,29.99,West,278,2.0,4.0,67,0.00,OVC,,0.09,WeatherDisplay:10.37,2013-05-26 23:25:00,
2013-05-26 19:30:00,51.9,41.7,30.00,West,260,1.0,4.0,68,0.00,OVC,,0.09,WeatherDisplay:10.37,2013-05-26 23:30:00,
2013-05-26 19:35:00,51.7,41.5,30.00,WSW,251,1.0,4.0,68,0.00,OVC,,0.09,WeatherDisplay:10.37,2013-05-26 23:35:00,
2013-05-26 19:40:00,51.6,41.7,30.00,WNW,284,0.0,2.0,69,0.00,OVC,,0.09,WeatherDisplay:10.37,2013-05-26 23:40:00,
2013-05-26 19:45:00,51.4,41.6,30.00,WNW,284,1.0,5.0,69,0.00,OVC,,0.09,WeatherDisplay:10.37,2013-05-26 23:45:00,
2013-05-26 19:50:00,51.1,40.9,30.00,West,279,1.0,7.0,68,0.00,OVC,,0.09,WeatherDisplay:10.37,2013-05-26 23:50:00,
2013-05-26 19:55:00,50.9,40.7,30.01,WNW,282,2.0,8.0,68,0.00,OVC,,0.09,WeatherDisplay:10.37,2013-05-26 23:55:00,
2013-05-26 20:00:00,50.9,40.3,30.01,WNW,291,5.0,18.0,67,0.00,OVC,,0.09,WeatherDisplay:10.37,2013-05-27 00:00:00,
2013-05-26 20:10:00,50.7,40.5,30.01,WNW,288,1.0,4.0,68,0.00,OVC,,0.09,WeatherDisplay:10.37,2013-05-27 00:10:00,
2013-05-26 20:15:00,50.5,40.7,30.01,West,274,1.0,18.0,69,0.00,OVC,,0.09,WeatherDisplay:10.37,2013-05-27 00:15:00,
2013-05-26 20:20:00,50.4,41.3,30.01,West,269,2.0,3.0,71,0.00,BKN,,0.09,WeatherDisplay:10.37,2013-05-27 00:20:00,
2013-05-26 20:25:00,50.2,40.8,30.01,WNW,282,1.0,4.0,70,0.00,BKN,,0.09,WeatherDisplay:10.37,2013-05-27 00:25:00,
2013-05-26 20:30:00,50.0,40.9,30.01,WNW,284,3.0,5.0,71,0.00,BKN,,0.09,WeatherDisplay:10.37,2013-05-27 00:30:00,
2013-05-26 20:35:00,49.8,40.8,30.02,West,272,1.0,3.0,71,0.00,BKN,,0.09,WeatherDisplay:10.37,2013-05-27 00:35:00,
2013-05-26 20:40:00,49.7,40.7,30.02,WNW,286,0.0,4.0,71,0.00,BKN,,0.09,WeatherDisplay:10.37,2013-05-27 00:40:00,
2013-05-26 20:45:00,49.6,40.5,30.01,NW,319,1.0,6.0,71,0.00,BKN,,0.09,WeatherDisplay:10.37,2013-05-27 00:45:00,
2013-05-26 20:50:00,49.4,40.4,30.01,NW,312,2.0,5.0,71,0.00,BKN,,0.09,WeatherDisplay:10.37,2013-05-27 00:50:00,
2013-05-26 20:55:00,49.3,40.3,30.01,NW,308,1.0,6.0,71,0.00,BKN,,0.09,WeatherDisplay:10.37,2013-05-27 00:55:00,
2013-05-26 21:00:00,49.2,39.8,30.01,WNW,302,1.0,5.0,70,0.00,BKN,,0.09,WeatherDisplay:10.37,2013-05-27 01:00:00,
2013-05-26 21:05:00,49.1,40.1,30.01,WNW,296,1.0,5.0,71,0.00,FEW,,0.09,WeatherDisplay:10.37,2013-05-27 01:05:00,
2013-05-26 21:10:00,49.0,40.0,30.02,WNW,295,2.0,5.0,71,0.00,FEW,,0.09,WeatherDisplay:10.37,2013-05-27 01:10:00,
2013-05-26 21:15:00,48.9,40.3,30.03,WNW,291,1.0,3.0,72,0.00,FEW,,0.09,WeatherDisplay:10.37,2013-05-27 01:15:00,
2013-05-26 21:20:00,48.8,39.8,30.03,WNW,286,0.0,4.0,71,0.00,FEW,,0.09,WeatherDisplay:10.37,2013-05-27 01:20:00,
2013-05-26 21:25:00,48.7,40.4,30.03,WNW,284,1.0,4.0,73,0.00,FEW,,0.09,WeatherDisplay:10.37,2013-05-27 01:25:00,
2013-05-26 21:30:00,48.6,40.3,30.03,West,273,0.0,2.0,73,0.00,FEW,,0.09,WeatherDisplay:10.37,2013-05-27 01:30:00,
2013-05-26 21:35:00,48.5,40.2,30.04,West,265,0.0,2.0,73,0.00,FEW,,0.09,WeatherDisplay:10.37,2013-05-27 01:35:00,
2013-05-26 21:40:00,48.3,40.4,30.04,West,278,0.0,0.0,74,0.00,FEW,,0.09,WeatherDisplay:10.37,2013-05-27 01:40:00,
2013-05-26 21:45:00,48.1,40.5,30.03,West,279,0.0,0.0,75,0.00,FEW,,0.09,WeatherDisplay:10.37,2013-05-27 01:45:00,
2013-05-26 21:50:00,47.8,40.3,30.04,West,279,0.0,0.0,75,0.00,FEW,,0.09,WeatherDisplay:10.37,2013-05-27 01:50:00,
2013-05-26 21:55:00,47.5,40.0,30.04,West,279,0.0,0.0,75,0.00,FEW,,0.09,WeatherDisplay:10.37,2013-05-27 01:55:00,
2013-05-26 22:00:00,47.2,40.3,30.04,West,279,0.0,0.0,77,0.00,FEW,,0.09,WeatherDisplay:10.37,2013-05-27 02:00:00,
2013-05-26 22:05:00,46.8,40.3,30.05,West,279,0.0,0.0,78,0.00,CLR,,0.09,WeatherDisplay:10.37,2013-05-27 02:05:00,
2013-05-26 22:15:00,46.2,40.4,30.05,West,276,0.0,0.0,80,0.00,CLR,,0.09,WeatherDisplay:10.37,2013-05-27 02:15:00,
2013-05-26 22:20:00,45.9,40.1,30.05,West,274,0.0,0.0,80,0.00,CLR,,0.09,WeatherDisplay:10.37,2013-05-27 02:20:00,
2013-05-26 22:25:00,45.7,41.1,30.05,West,274,0.0,0.0,84,0.00,CLR,,0.09,WeatherDisplay:10.37,2013-05-27 02:25:00,
2013-05-26 22:30:00,45.4,41.2,30.05,West,274,0.0,0.0,85,0.00,CLR,,0.09,WeatherDisplay:10.37,2013-05-27 02:30:00,
2013-05-26 22:35:00,45.1,40.6,30.05,West,274,0.0,0.0,84,0.00,CLR,,0.09,WeatherDisplay:10.37,2013-05-27 02:35:00,
2013-05-26 22:40:00,44.9,40.0,30.06,West,274,0.0,0.0,83,0.00,CLR,,0.09,WeatherDisplay:10.37,2013-05-27 02:40:00,
2013-05-26 22:45:00,44.7,40.5,30.06,West,274,0.0,0.0,85,0.00,CLR,,0.09,WeatherDisplay:10.37,2013-05-27 02:45:00,
2013-05-26 22:50:00,44.5,40.6,30.06,West,274,0.0,0.0,86,0.00,CLR,,0.09,WeatherDisplay:10.37,2013-05-27 02:50:00,
2013-05-26 22:55:00,44.3,40.7,30.06,West,274,0.0,0.0,87,0.00,CLR,,0.09,WeatherDisplay:10.37,2013-05-27 02:55:00,
2013-05-26 23:00:00,44.1,40.8,30.06,West,274,0.0,0.0,88,0.00,CLR,,0.09,WeatherDisplay:10.37,2013-05-27 03:00:00,
2013-05-26 23:05:00,44.0,40.4,30.06,West,274,0.0,0.0,87,0.00,CLR,,0.09,WeatherDisplay:10.37,2013-05-27 03:05:00,
2013-05-26 23:10:00,43.8,40.2,30.06,West,274,0.0,0.0,87,0.00,CLR,,0.09,WeatherDisplay:10.37,2013-05-27 03:10:00,
2013-05-26 23:15:00,43.7,40.4,30.06,West,274,0.0,0.0,88,0.00,CLR,,0.09,WeatherDisplay:10.37,2013-05-27 03:15:00,
2013-05-26 23:20:00,43.6,40.5,30.06,West,274,0.0,0.0,89,0.00,CLR,,0.09,WeatherDisplay:10.37,2013-05-27 03:20:00,
2013-05-26 23:25:00,43.4,40.1,30.07,West,274,0.0,0.0,88,0.00,CLR,,0.09,WeatherDisplay:10.37,2013-05-27 03:25:00,
2013-05-26 23:30:00,43.2,40.2,30.07,West,274,0.0,0.0,89,0.00,CLR,,0.09,WeatherDisplay:10.37,2013-05-27 03:30:00,
2013-05-26 23:35:00,42.9,39.9,30.07,West,274,0.0,0.0,89,0.00,CLR,,0.09,WeatherDisplay:10.37,2013-05-27 03:35:00,
2013-05-26 23:40:00,42.8,39.8,30.08,West,274,0.0,0.0,89,0.00,CLR,,0.09,WeatherDisplay:10.37,2013-05-27 03:40:00,
2013-05-26 23:45:00,42.5,39.5,30.08,West,274,0.0,0.0,89,0.00,CLR,,0.09,WeatherDisplay:10.37,2013-05-27 03:45:00,
2013-05-26 23:50:00,42.4,39.7,30.08,West,274,0.0,0.0,90,0.00,CLR,,0.09,WeatherDisplay:10.37,2013-05-27 03:50:00,
2013-05-26 23:55:00,42.2,39.5,30.07,West,274,0.0,0.0,90,0.00,CLR,,0.09,WeatherDisplay:10.37,2013-05-27 03:55:00,